Location: Mapua
(41.2500°S, 173.1000°E)
Time: 19:47:00
(UTC+12:00)

Tiangong 1 - Visible Passes

Search period start: 17 August 2017 00:00
Search period end: 27 August 2017 00:00
Orbit: 313 x 338 km, 42.8° (Epoch: 17 August)

Date Brightness Start Highest point End Pass type
(mag) Time Alt. Az. Time Alt. Az. Time Alt. Az.
17 Aug 2.7 06:39:32 10° NW 06:42:01 28° NNE 06:44:33 10° E visible
18 Aug 3.7 05:23:11 11° NNE 05:23:51 12° NE 05:25:01 10° ENE visible
19 Aug 2.6 05:39:44 22° N 05:40:31 26° NNE 05:42:57 10° E visible
20 Aug 1.3 05:56:06 28° NW 05:57:16 54° NNE 06:00:03 10° E visible
21 Aug 0.7 06:12:17 20° W 06:14:04 85° SSW 06:16:55 10° ESE visible
22 Aug 3.8 04:57:21 18° E 04:57:21 18° E 04:58:14 10° E visible
22 Aug 0.9 06:28:21 12° W 06:30:54 62° S 06:33:44 10° ESE visible
23 Aug 2.6 05:13:18 32° ESE 05:13:18 32° ESE 05:15:01 10° ESE visible
24 Aug 1.1 05:29:11 59° SSE 05:29:11 59° SSE 05:31:43 10° ESE visible
25 Aug 1.0 05:45:00 44° SW 05:45:37 60° S 05:48:25 10° E visible
26 Aug 0.7 06:00:45 24° WSW 06:02:15 77° S 06:05:05 10° E visible
